Volver al catálogo

COSMOS 1275 DEB

ActivoPO
NORAD 42210·DEBRIS·🇷🇺 Russia

Lanzado Jun 4, 1981 desde Plesetsk Cosmodrome

Loading…

Próximos Pases (próximas 24 horas)

TLE

ActualizadoSource: Space-Track

Época: Sep 14, 2026, 14:41 UTC

1 42210U 81053UA  26257.61222402  .00000623  00000-0  64347-3 0  9995
2 42210  83.0083 205.5759 0108709 114.5852   6.4298 13.71791698639680

Sigue COSMOS 1275 DEB en tiempo real con AllMySat

Download on the App Store